This is the latest recevied weather packets stored in our database for station/object KM4RT-13. If no packets are shown the sender has not sent any weather packets the latest 10 day(s).
| Time | Temp. | Humidity | Pressure | Rain* | Wind** | Luminosity | Snow |
|---|---|---|---|---|---|---|---|
| 1777935146 | 25.56° C | 41% | 1007.1 hPa | 0 mm | - | 132 W/m² | - |
| 1777934843 | 25.56° C | 41% | 1007 hPa | 0 mm | - | 178 W/m² | - |
| 1777934540 | 26.11° C | 41% | 1007 hPa | 0 mm | - | 170 W/m² | - |
| 1777934236 | 25.56° C | 41% | 1007 hPa | 0 mm | - | 200 W/m² | - |
| 1777933932 | 26.11° C | 40% | 1007.1 hPa | 0 mm | - | 176 W/m² | - |
| 1777933629 | 26.11° C | 40% | 1007 hPa | 0 mm | - | 66 W/m² | - |
| 1777933326 | 26.11° C | 41% | 1007.1 hPa | 0 mm | - | 57 W/m² | - |
| 1777933024 | 26.11° C | 41% | 1007 hPa | 0 mm | - | 59 W/m² | - |
| 1777932721 | 26.11° C | 41% | 1006.9 hPa | 0 mm | - | 60 W/m² | - |
| 1777932416 | 26.11° C | 41% | 1007.1 hPa | 0 mm | - | 60 W/m² | - |
| 1777932115 | 26.11° C | 40% | 1007.1 hPa | 0 mm | - | 63 W/m² | - |
| 1777931811 | 26.11° C | 42% | 1006.9 hPa | 0 mm | - | 62 W/m² | - |
| 1777931508 | 26.11° C | 41% | 1006.9 hPa | 0 mm | - | 128 W/m² | - |
| 1777931204 | 26.67° C | 40% | 1007 hPa | 0 mm | - | 76 W/m² | - |
| 1777930900 | 26.11° C | 42% | 1007 hPa | 0 mm | - | 65 W/m² | - |
| 1777930597 | 26.11° C | 41% | 1006.9 hPa | 0 mm | - | 77 W/m² | - |
| 1777930294 | 26.11° C | 42% | 1006.8 hPa | 0 mm | - | 345 W/m² | - |
| 1777929990 | 26.11° C | 41% | 1007.2 hPa | 0 mm | - | 392 W/m² | - |
| 1777929687 | 26.11° C | 40% | 1007.1 hPa | 0 mm | - | 419 W/m² | - |
| 1777929385 | 26.11° C | 40% | 1007 hPa | 0 mm | - | 438 W/m² | - |
| 1777929081 | 26.11° C | 42% | 1007.4 hPa | 0 mm | - | 449 W/m² | - |
| 1777928779 | 26.11° C | 41% | 1007.1 hPa | 0 mm | - | 460 W/m² | - |
| 1777928475 | 26.11° C | 41% | 1007.2 hPa | 0 mm | - | 478 W/m² | - |
| 1777928173 | 26.11° C | 42% | 1007.3 hPa | 0 mm | - | 488 W/m² | - |
| 1777927870 | 26.11° C | 42% | 1007.3 hPa | 0 mm | - | 487 W/m² | - |
* Rain latest hour (hover to see other rain measurements)
** Current wind speed in m/s (hover to see current wind gust speed)